Location: ??????
(56.0120°N, 39.1740°E)
Time: 10:16:50
(UTC+00:00)

USA 245 - Pass Details

Date: 14 April 2026
Orbit: 264 x 994 km, 97.9° (Epoch: 15 October)

Event Time Altitude Azimuth Distance (km) Brightness Sun altitude
Exits shadow 18:28:00 21° 168° (SSE) 1,386 4.9 -15.0°
Maximum altitude 18:30:53 83° 254° (WSW) 681 3.7 -15.3°
Drops below altitude 10° 18:36:00 10° 344° (NNW) 2,318 7.5 -15.8°
Sets 18:38:33 0° 345° (NNW) 3,340 8.5 -16.0°
